Regional Weather Roundup
Issued by NWS

Home | Current Version | Previous Version | Text Only | Print | Product List | Glossary On
Versions: 1 2 3 4 5 6 7 8 9 10 11 12 13 14 15 16 17 18 19 20 21 22 23 24 25 26 27 28 29 30 31 32 33 34 35 36 37 38 39 40 41 42 43 44 45 46 47 48 49 50
000
ASUS46 KPQR 201310
RWROR

OREGON REGIONAL WEATHER ROUNDUP
NATIONAL WEATHER SERVICE PORTLAND OR
600 AM PDT WED SEP 20 2017

NOTE: "FAIR" INDICATES FEW OR NO CLOUDS BELOW 12,000 FEET WITH
NO SIGNIFICANT WEATHER AND/OR OBSTRUCTIONS TO VISIBILITY.

ORZ001>013-201400-
NORTHWEST OREGON


CITY           SKY/WX    TMP DP  RH WIND       PRES   REMARKS
ASTORIA        CLOUDY    49  46  90 VRB5      29.61R
NEWPORT        PTCLDY    54  50  87 W9        29.76S
PORTLAND       CLOUDY    51  51 100 SE5       29.63R
VANCOUVER WA   MOCLDY    52  51  97 E5        29.62R
SCAPPOOSE      LGT RAIN  58  49  72 S5        29.61S
HILLSBORO      MOCLDY    51  49  92 CALM      29.62R
AURORA         PTCLDY    54  49  83 S9        29.65R
MCMINNVILLE    PTCLDY    53  49  86 SW9       29.66R
SALEM          PTCLDY    54  47  77 SW6       29.67R
EUGENE         RAIN      53  52  96 SW13      29.75R
$$

ORZ021-028-201400-
SOUTHWEST OREGON


CITY           SKY/WX    TMP DP  RH WIND       PRES   REMARKS
NORTH BEND     LGT RAIN  55  53  93 W8        29.83R
BROOKINGS      CLOUDY    57  56  96 NW3       29.88S
ROSEBURG       CLOUDY    58  50  75 VRB3      29.78R
SEXTON SUMMIT  CLOUDY    46  45  96 CALM      29.81S FOG
GRANTS PASS    CLOUDY    57  54  88 CALM      29.83S
MEDFORD        CLOUDY    52  51  97 CALM      29.79S
$$

ORZ014>016-041-201400-
COLUMBIA GORGE


CITY           SKY/WX    TMP DP  RH WIND       PRES   REMARKS
TROUTDALE      CLOUDY    52  49  89 E5        29.63R
HOOD RIVER     CLOUDY    46  45  93 CALM      29.64F
THE DALLES     LGT RAIN  50  49  96 CALM      29.63S
$$

ORZ029>031-041-044-049-050-061>064-502-503-505>511-201400-
EASTERN OREGON


CITY           SKY/WX    TMP DP  RH WIND       PRES   REMARKS
MADRAS         LGT RAIN N/A N/A N/A CALM      29.64S
REDMOND        LGT RAIN  46  42  86 S5        29.64R
BEND           DRIZZLE   48  41  76 SW13      29.66S
PRINEVILLE     CLOUDY    46  43  87 SW7       29.65S
KLAMATH FALLS  CLOUDY    49  43  80 VRB3      29.81F
LAKEVIEW       PTCLDY    45  42  89 S17G24    29.81F
HERMISTON      CLOUDY    50  49  96 S7        29.61F
PENDLETON      RAIN      45  44  97 S5        29.62F
JOHN DAY       LGT RAIN  51  41  69 SW14G24   29.64R
MEACHAM        LGT RAIN  39  38  96 CALM      29.62S
LA GRANDE      RAIN      40  39  97 NW3       29.66F
BAKER CITY     LGT RAIN  47  39  74 VRB7G24   29.63F
BURNS          LGT RAIN  45  43  93 SW6       29.71F
ROME             N/A     56  37  49 S18G26    29.76F
ONTARIO        MOCLDY    48  43  82 E6        29.70F
$$



USA.gov is the U.S. government's official web portal to all federal, state and local government web resources and services.